Location: Fernhill
(41.0167°S, 175.6333°E)
Time: 06:44:36
(UTC+00:00)

Gbstr 26 Del rocket - Pass Details

Date: 08 November 2025
Orbit: 489 x 1219 km, 51.8° (Epoch: 11 December)

Event Time Altitude Azimuth Distance (km) Brightness Sun altitude
Rises 10:08:06 0° 234° (SW) 3,255 7.8 -26.6°
Reaches altitude 10° 10:10:47 10° 231° (SW) 2,203 6.7 -26.9°
Enters shadow 10:15:07 59° 194° (SSW) 731 3.6 -27.3°
